Location: ?????????
(54.7630°N, 39.4991°E)
Time: 11:54:58
(UTC+00:00)

Cosmos 2322 Rocket - Pass Details

Date: 14 April 2026
Orbit: 832 x 849 km, 71.0° (Epoch: 10 May)

Event Time Altitude Azimuth Distance (km) Brightness Sun altitude
Rises 23:20:25 0° 325° (NW) 3,393 5.7 -20.9°
Reaches altitude 10° 23:23:05 10° 334° (NNW) 2,457 5.0 -20.7°
Maximum altitude 23:28:14 35° 40° (NE) 1,326 3.8 -20.3°
Drops below altitude 10° 23:33:23 10° 106° (ESE) 2,456 4.8 -19.9°
Sets 23:36:02 0° 115° (ESE) 3,391 5.5 -19.7°
